Regional Weather Roundup
Issued by NWS

Home | Current Version | Previous Version | Text Only | Print | Product List | Glossary On
Versions: 1 2 3 4 5 6 7 8 9 10 11 12 13 14 15 16 17 18 19 20 21 22 23 24 25 26 27
000
ASUS45 KBOI 231410
RWRID

IDAHO REGIONAL WEATHER ROUNDUP
NATIONAL WEATHER SERVICE BOISE ID
700 AM MST THU FEB 23 2017

NOTE: "FAIR" INDICATES FEW OR NO CLOUDS BELOW 12000 FEET
WITH NO SIGNIFICANT WEATHER AND/OR OBSTRUCTIONS TO VISIBILITY

IDZ012-014-231500-
SOUTHWEST IDAHO


CITY           SKY/WX    TMP DP  RH WIND       PRES   REMARKS
BOISE          CLOUDY    31  23  72 NW21      29.83S WCI  18
CALDWELL       CLOUDY    33  23  66 W20G31    29.90R WCI  21
MOUNTAIN HOME  MOCLDY    30  26  83 NW30G41   29.80S WCI  15
$$

IDZ016-017-231500-
SOUTHCENTRAL IDAHO


CITY           SKY/WX    TMP DP  RH WIND       PRES   REMARKS
BURLEY         LGT SNOW  28  23  81 W18       29.68S VSB 1   WCI  15
JEROME           N/A    N/A N/A N/A MISG      29.71R
TWIN FALLS     SNOW      24  22  91 W31G39    29.70S VSB 1/2 WCI   7
$$

IDZ019>023-231500-
SOUTHEAST IDAHO


CITY           SKY/WX    TMP DP  RH WIND       PRES   REMARKS
IDAHO FALLS    LGT SNOW  27  26  96 S9        29.64R FOG     WCI  18
POCATELLO      FLURRIES  26  25  96 SW10      29.66S WCI  16
REXBURG        CLOUDY    28  22  78 CALM      29.63F
$$

IDZ006-010-011-018-031-032-231500-
CENTRAL IDAHO MOUNTAINS


CITY           SKY/WX    TMP DP  RH WIND       PRES   REMARKS
MCCALL         CLOUDY    23  15  71 N9        29.77S WCI  13
HAILEY         CLOUDY    23  19  86 CALM      29.66R
STANLEY          N/A     20  15  81 N7        29.66S WCI  11
SALMON         CLOUDY    30  23  74 CALM      29.74S
CHALLIS        CLOUDY    28  20  71 N8        29.68S WCI  20
$$

IDZ002-004-006-007-026-231500-
NORTHERN IDAHO


CITY           SKY/WX    TMP DP  RH WIND       PRES   REMARKS
LEWISTON       MOCLDY    32  26  78 W6        30.06R WCI  26
LOWELL           N/A     33  31  92 CALM      30.02S
COEUR D`ALENE  FOG       25  24  96 CALM      30.04R VSB 1/4
MULLAN PASS    CLOUDY    18  14  84 NW6       29.83R FOG     WCI  10
$$




USA.gov is the U.S. government's official web portal to all federal, state and local government web resources and services.